CAPE
231 286 502 481 37 407 381 462 424 495 484 407 284 275 483 249 19 0 0 226 224 323 365 394 411 483 617 885 1199 1518 1836 2135 2356 2495 2313 2066 1910 1917 1902 1740 1755 1859 1926
328 417 372 134 220 236 172 610 687 480 685 225 54 35 104 17 0 0 7 62 223 112 268 410 520 609 746 987 1224 1520 1745 2008 2197 2218 1963 1917 1776 1691 1582 1606 1671 1776 1964
564 327 202 436 611 673 856 1073 1003 923 852 142 42 0 0 0 0 0 0 7 13 57 169 284 444 548 655 875 1227 1571 1785 1924 2033 1971 1891 1613 1304 1120 1160 1114 1144 1477 1320
521 517 470 574 951 743 554 836 792 700 498 363 274 14 8 6 14 9 0 0 0 4 18 90 271 517 800 1167 1464 1777 1927 2256 2157 1851 1659 1139 723 710 782 989 832 1082 1349
828 878 764 749 643 578 881 865 1264 490 345 230 235 189 92 72 31 46 49 21 16 13 2 0 58 259 611 1261 1803 1477 1676 1923 1857 1553 1188 662 561 544 689 962 785 854 1093
898 686 451 176 384 613 679 1026 1112 641 322 287 283 455 309 109 58 209 282 118 44 93 107 240 343 406 611 851 1441 1664 1531 1492 1506 972 800 822 626 540 560 753 881 780 781
468 440 278 0 257 857 1169 1518 1276 530 485 721 787 464 315 243 81 167 245 280 306 389 375 369 416 546 645 694 1375 1653 1463 1239 1071 883 744 948 750 423 405 515 761 1051 760
682 808 497 0 382 539 1049 1560 1281 806 515 562 872 596 403 326 266 185 249 295 321 381 487 593 663 643 641 864 1227 1270 1002 886 751 735 674 965 862 593 411 462 896 1058 700
804 691 235 0 190 183 809 1202 1353 1050 911 405 403 820 479 468 776 166 170 309 356 283 419 540 638 1025 1056 1123 1082 492 547 552 640 682 604 1036 950 913 746 514 941 826 599
979 768 397 0 169 15 847 1333 879 816 594 492 649 119 137 182 485 448 163 57 5 217 84 336 284 1083 1364 1023 710 620 608 845 747 799 717 903 1136 1108 1057 545 799 685 446
885 650 727 443 2 185 938 1291 892 66 479 538 702 353 148 124 47 50 146 287 1 3 40 3 0 194 630 589 620 637 955 1012 920 1034 1156 1108 1070 1026 883 725 514 786 316
735 840 823 597 87 481 902 1141 931 96 63 558 631 203 281 476 45 79 28 8 0 0 71 3 16 102 73 306 426 587 727 899 928 1000 706 432 461 480 486 539 330 693 318
641 736 769 660 414 664 941 1125 1001 719 213 685 966 448 129 230 171 133 136 102 4 0 145 60 5 0 17 252 449 620 630 722 1010 673 742 810 771 576 604 567 376 205 216
489 545 712 711 448 406 804 1047 1073 951 872 995 955 851 597 241 188 223 203 159 452 270 167 262 99 315 385 520 670 910 1060 1000 722 914 1040 740 830 1001 1141 1127 780 149 102
335 377 634 736 553 686 739 910 956 672 692 1017 904 763 887 525 279 301 155 139 180 222 265 42 237 402 564 727 999 965 990 979 616 772 751 772 1010 758 588 814 596 117 76
353 580 475 598 675 706 734 675 789 868 612 966 827 721 883 692 383 476 417 469 151 256 64 7 462 425 666 799 768 635 638 431 511 739 718 882 579 432 37 110 122 58 57
325 429 436 427 462 498 599 795 815 650 551 681 698 590 581 502 518 558 610 686 657 376 337 334 362 541 784 623 646 523 505 401 683 669 734 630 433 265 23 1 3 68 16
258 245 196 175 375 492 583 625 795 658 363 500 474 528 552 568 596 549 519 464 407 481 348 229 341 394 300 527 526 276 269 627 503 701 611 444 97 127 8 47 0 0 0
337 169 43 0 218 511 538 669 657 689 785 440 574 564 583 534 541 619 426 302 432 344 376 269 36 119 270 359 169 189 312 522 231 69 60 0 0 0 0 0 0 0 0
325 163 51 137 503 676 729 737 705 626 698 721 578 434 415 510 599 591 457 413 408 223 110 0 26 225 358 51 69 124 123 274 69 0 0 0 0 0 0 0 0 0 0
474 370 367 381 295 289 175 257 382 492 470 436 209 107 87 95 110 185 267 252 252 100 143 175 252 231 77 0 3 68 93 114 96 0 0 0 0 0 0 0 0 0 0
331 273 299 237 162 38 6 0 0 189 204 143 118 23 4 6 29 61 59 109 180 189 197 233 9 0 0 0 0 0 0 0 0 0 0 0 0 0 0 0 0 0 0
87 46 33 2 0 0 0 0 0 7 66 28 8 0 0 0 0 4 0 0 0 0 0 0 0 0 0 0 0 0 0 0 0 0 0 0 0 0 0 0 0 0 0
14 0 0 0 0 0 0 0 0 17 1 0 0 0 0 0 0 0 0 0 0 0 0 0 0 0 0 0 0 0 0 0 0 0 0 0 0 0 0 0 0 0 0
0 1 0 0 0 0 0 0 1 0 0 0 0 0 0 0 0 0 0 0 0 0 0 0 0 0 0 0 0 0 0 0 0 0 0 0 0 0 0 0 0 0 0
0 0 0 0 0 0 0 0 0 0 0 0 0 0 0 0 0 0 0 0 0 0 0 0 0 0 0 0 0 0 0 0 0 0 0 0 0 0 0 0 0 0 0
CIN
-97 -96 -93 -104 -195 -128 -115 -89 -92 -76 -93 -101 -122 -146 -141 -180 -178 0 0 -250 -246 -227 -216 -218 -212 -190 -169 -128 -102 -95 -87 -73 -61 -44 -41 -49 -50 -59 -57 -51 -50 -50 -44
-94 -80 -95 -99 -96 -119 -133 -94 -72 -86 -77 -122 -149 -73 -169 -139 0 0 -416 -340 -266 -297 -253 -212 -179 -163 -142 -122 -108 -104 -97 -83 -73 -63 -65 -63 -62 -64 -54 -55 -66 -62 -57
-81 -90 -96 -82 -76 -98 -80 -78 -61 -56 -69 -138 -157 0 0 0 0 0 0 -375 -414 -304 -245 -228 -185 -168 -148 -124 -105 -91 -80 -83 -73 -64 -58 -55 -69 -72 -80 -92 -90 -81 -94
-88 -83 -70 -59 -68 -99 -98 -81 -74 -59 -88 -104 -135 -212 -244 -261 -259 -320 0 0 0 -290 -325 -242 -195 -164 -134 -103 -89 -77 -57 -63 -59 -54 -47 -49 -69 -89 -97 -108 -125 -107 -88
-62 -48 -49 -65 -87 -88 -74 -75 -76 -82 -66 -101 -103 -149 -176 -185 -198 -215 -229 -273 -325 -323 -55 0 -263 -205 -154 -99 -78 -64 -56 -55 -54 -52 -49 -79 -91 -96 -110 -114 -136 -131 -108
-47 -61 -91 -118 -107 -90 -69 -61 -79 -123 -115 -96 -93 -80 -105 -164 -219 -173 -160 -224 -302 -288 -328 -273 -235 -223 -167 -154 -87 -74 -51 -62 -52 -51 -68 -81 -101 -112 -130 -128 -128 -136 -142
-54 -74 -93 -1 -103 -60 -58 -57 -73 -98 -106 -119 -80 -88 -121 -137 -153 -149 -197 -230 -240 -255 -227 -242 -244 -200 -171 -132 -67 -64 -45 -61 -48 -51 -63 -70 -93 -127 -142 -145 -150 -134 -166
-46 -52 -77 0 -112 -62 -53 -51 -64 -79 -129 -163 -49 -79 -56 -73 -130 -217 -218 -211 -232 -235 -201 -203 -175 -159 -176 -124 -77 -55 -64 -61 -54 -57 -66 -59 -65 -101 -116 -141 -135 -137 -170
-43 -42 -78 0 -106 -102 -56 -57 -62 -60 -61 -174 -166 -73 -63 -48 -92 -256 -258 -261 -246 -244 -187 -177 -211 -190 -156 -120 -71 -62 -95 -96 -59 -63 -68 -52 -55 -65 -96 -134 -123 -156 -185
-40 -52 -79 0 -91 -6 -65 -58 -91 -90 -116 -88 -140 -240 -244 -198 -78 -79 -214 -225 -65 -232 -263 -205 -220 -137 -128 -108 -94 -86 -90 -71 -51 -61 -53 -57 -49 -52 -62 -97 -103 -143 -190
-35 -40 -53 -78 -32 -88 -56 -58 -69 -149 -132 -124 -126 -164 -214 -227 -282 -172 -96 -138 -16 -103 -294 -46 0 -210 -135 -139 -107 -91 -67 -49 -44 -54 -61 -77 -61 -58 -73 -81 -104 -108 -188
-35 -31 -44 -64 -50 -77 -48 -59 -67 -137 -138 -142 -145 -215 -169 -114 -174 -178 -178 -100 0 0 -210 -43 -271 -184 -183 -158 -130 -88 -64 -42 -44 -64 -90 -74 -60 -73 -68 -77 -100 -97 -166
-29 -26 -36 -49 -68 -68 -50 -51 -56 -65 -66 -86 -76 -143 -226 -188 -218 -215 -194 -167 -140 0 -151 -212 -119 0 -141 -144 -103 -90 -66 -47 -61 -84 -85 -59 -61 -73 -49 -70 -102 -147 -176
-41 -38 -31 -40 -51 -60 -47 -39 -39 -60 -67 -63 -63 -84 -104 -153 -195 -185 -169 -149 -65 -103 -143 -100 -160 -117 -111 -102 -101 -94 -80 -79 -95 -84 -78 -79 -74 -73 -67 -67 -90 -190 -219
-54 -57 -44 -38 -36 -33 -31 -33 -33 -42 -58 -59 -65 -69 -61 -101 -167 -161 -190 -172 -93 -58 -57 -90 -42 -81 -72 -76 -79 -95 -91 -97 -104 -92 -85 -91 -88 -100 -92 -79 -128 -192 -253
-62 -48 -52 -41 -36 -34 -27 -31 -26 -32 -48 -31 -50 -61 -50 -74 -108 -118 -124 -99 -133 -56 -56 -108 -51 -80 -76 -66 -80 -98 -91 -89 -108 -109 -101 -90 -91 -130 -266 -176 -191 -248 -265
-75 -71 -68 -57 -45 -44 -31 -23 -20 -27 -28 -26 -37 -39 -38 -58 -54 -57 -64 -54 -56 -72 -36 -52 -82 -76 -64 -66 -70 -115 -121 -128 -123 -112 -109 -101 -113 -159 -196 -53 -117 -234 -324
-89 -76 -85 -79 -50 -36 -38 -27 -17 -19 -31 -27 -36 -36 -26 -34 -33 -45 -46 -32 -39 -58 -53 -37 -70 -62 -68 -93 -101 -114 -132 -118 -120 -96 -108 -104 -153 -183 -279 -257 0 0 0
-92 -90 -116 0 -66 -34 -34 -33 -22 -17 -18 -45 -35 -37 -31 -34 -30 -34 -40 -42 -49 -62 -64 -74 -95 -128 -95 -108 -141 -144 -133 -111 -133 -129 -176 0 0 0 0 0 0 0 0
-47 -72 -116 -78 -43 -31 -25 -26 -22 -23 -21 -29 -44 -64 -56 -43 -24 -35 -43 -42 -51 -79 -117 0 -69 -90 -80 -169 -176 -153 -132 -125 -108 0 0 0 0 0 0 0 0 0 0
-38 -36 -42 -57 -57 -64 -108 -88 -56 -38 -43 -47 -102 -146 -148 -144 -141 -102 -65 -63 -64 -84 -86 -83 -78 -92 -154 0 -39 -182 -159 -134 -93 0 0 0 0 0 0 0 0 0 0
-53 -51 -58 -73 -82 -146 -258 0 0 -84 -75 -89 -115 -213 -233 -165 -172 -175 -171 -121 -85 -65 -63 -58 -107 0 0 0 0 0 0 0 0 0 0 0 0 0 0 0 0 0 0
-118 -133 -125 -132 0 0 0 0 0 -159 -123 -169 -222 0 0 0 0 -228 0 0 0 0 0 0 0 0 0 0 0 0 0 0 0 0 0 0 0 0 0 0 0 0 0
-193 0 0 0 0 0 0 0 0 -148 -59 0 0 0 0 0 0 0 0 0 0 0 0 0 0 0 0 0 0 0 0 0 0 0 0 0 0 0 0 0 0 0 0
0 0 0 0 0 0 0 0 -21 0 0 0 0 0 0 0 0 0 0 0 0 0 0 0 0 0 0 0 0 0 0 0 0 0 0 0 0 0 0 0 0 0 0
0 0 0 0 0 0 0 0 0 0 0 0 0 0 0 0 0 0 0 0 0 0 0 0 0 0 0 0 0 0 0 0 0 0 0 0 0 0 0 0 0 0 0
Wind_Speed
22 18 15 14 15 16 15 14 13 14 13 13 15 19 20 21 19 20 20 20 19 18 17 17 15 14 12 11 9 9 8 7 6 5 4 4 4 3 3 3 2 2 1
20 20 16 15 13 15 15 14 15 14 13 13 13 18 22 23 21 22 21 19 19 18 17 15 14 12 11 9 8 7 7 7 6 3 1 3 5 5 7 9 8 6 2
20 19 17 16 15 15 15 14 15 16 14 11 13 18 22 22 22 22 21 20 19 18 16 15 13 11 9 8 6 6 6 7 6 4 3 5 8 8 9 12 10 7 3
21 20 19 17 13 11 11 11 12 15 16 15 15 19 24 22 21 20 20 19 18 17 16 14 12 10 8 6 5 4 4 6 6 6 7 9 9 9 9 12 9 6 5
22 21 23 21 15 11 11 11 11 15 19 19 18 19 20 22 20 18 19 18 17 16 14 12 9 8 6 4 2 2 4 6 7 11 12 12 8 7 8 8 9 9 7
23 22 23 20 18 14 12 11 11 12 17 20 19 19 20 19 19 19 17 18 15 14 12 10 8 7 5 3 2 3 4 5 7 11 14 13 9 7 7 5 5 7 8
22 23 21 20 21 15 13 13 14 11 9 12 13 14 19 21 19 19 17 16 15 12 10 8 7 5 4 4 7 6 6 7 7 9 12 11 9 7 7 5 5 7 9
22 22 21 22 21 17 14 13 14 16 11 10 8 9 20 15 13 16 19 14 12 14 18 10 12 9 10 10 11 13 10 5 4 7 10 9 7 6 5 6 6 7 10
23 22 21 24 21 19 16 15 14 15 16 11 10 12 18 21 18 14 14 14 15 16 18 22 24 25 19 15 17 17 12 5 3 5 7 6 4 5 5 6 8 9 12
23 22 22 23 22 19 20 18 16 15 16 12 13 11 11 15 13 13 6 7 18 18 21 21 25 24 22 20 16 19 10 4 3 3 5 3 2 3 5 8 9 9 12
22 21 22 22 21 21 21 19 17 17 17 17 17 16 17 16 15 14 11 8 20 21 22 23 22 22 21 20 21 9 9 6 2 3 4 4 3 3 6 8 10 13 13
23 23 22 22 23 23 21 19 17 17 18 14 13 13 18 16 21 16 12 12 19 22 21 23 19 22 22 25 10 8 3 2 6 8 4 4 5 1 5 6 8 13 18
23 23 23 23 23 23 22 18 18 20 18 17 16 15 13 15 16 17 16 19 18 18 20 21 19 22 25 25 22 11 4 13 1 12 26 29 17 3 4 5 6 11 16
24 24 24 24 23 23 23 19 14 20 23 15 14 13 13 15 15 15 15 18 19 20 21 21 22 24 26 28 29 27 27 26 28 29 30 27 21 14 7 2 6 11 16
24 23 21 23 24 23 19 21 19 23 23 22 18 18 14 12 13 14 14 15 18 23 24 23 22 24 26 26 27 26 26 27 28 30 31 29 25 21 10 1 11 16 20
27 27 21 16 19 26 22 7 15 20 21 16 19 20 14 14 15 14 13 15 12 19 23 21 20 23 25 25 25 25 26 27 29 30 31 31 30 29 24 15 23 23 24
23 22 10 6 2 13 22 14 4 4 22 14 12 15 11 10 12 10 11 15 18 15 19 19 20 23 22 25 26 27 28 28 29 30 29 29 30 32 30 29 27 27 28
19 17 5 6 3 14 14 10 9 12 17 16 8 8 11 16 14 10 11 13 14 16 18 22 21 21 21 24 25 28 28 27 27 28 28 28 30 30 29 29 28 29 29
16 19 10 11 3 1 1 7 11 14 19 20 21 19 19 19 17 14 16 17 17 18 18 18 20 19 19 24 25 26 26 25 26 27 27 28 28 30 30 30 31 31 30
15 20 12 13 15 13 9 11 10 9 11 13 16 16 16 14 12 11 13 16 15 16 16 17 18 19 19 21 22 24 26 24 25 27 27 28 27 27 30 31 32 32 32
15 19 19 17 16 16 17 16 14 11 9 10 14 14 13 13 15 16 14 15 16 17 18 18 18 19 21 22 23 23 23 23 21 28 26 28 27 26 28 31 32 33 33
23 17 17 16 16 15 16 19 19 15 10 7 9 12 14 14 15 16 16 16 15 17 17 17 18 20 21 21 22 22 23 23 22 28 26 27 28 26 26 30 32 33 33
22 21 19 16 15 15 19 20 17 15 11 10 10 12 15 16 14 13 13 15 17 18 18 18 19 20 20 21 20 21 23 23 21 28 26 25 30 26 25 29 32 33 31
23 22 21 21 21 19 20 18 15 14 13 13 12 13 14 14 13 12 12 15 17 18 18 16 16 18 19 20 20 21 24 23 20 28 30 25 30 28 23 26 32 33 33
26 24 21 21 21 20 16 10 11 13 12 14 15 15 13 12 13 11 11 13 14 14 15 15 17 18 20 22 23 23 27 27 26 27 31 26 29 29 23 26 30 34 33
19 19 17 17 19 19 17 14 12 10 13 13 17 16 14 13 12 13 12 10 10 12 13 15 18 19 21 23 25 25 25 26 25 25 30 27 31 30 26 22 30 32 33
Wind_Direction
175 197 219 225 221 211 212 218 217 211 210 209 198 180 172 162 168 166 166 167 167 165 162 159 155 152 147 140 132 119 106 92 79 70 71 74 76 75 70 63 44 27 320
192 176 203 207 220 210 213 223 218 214 215 212 201 180 164 159 161 161 166 171 169 166 165 163 163 159 153 147 133 118 96 73 54 29 46 79 77 64 51 46 43 40 22
179 188 196 205 214 212 221 225 221 211 211 216 205 186 172 169 163 158 160 164 168 170 172 172 169 169 163 148 132 104 76 56 39 27 50 74 62 55 53 50 48 53 52
178 179 185 196 216 232 231 233 231 208 205 205 204 186 175 178 172 173 174 172 170 171 171 172 174 174 175 153 117 99 55 41 33 37 59 62 62 61 61 57 54 56 57
175 172 167 170 202 226 229 222 223 211 193 194 196 194 190 182 188 195 185 186 189 183 177 177 180 190 189 189 185 88 47 31 34 50 59 57 64 67 64 63 55 52 55
162 176 170 172 190 213 220 229 228 228 204 198 204 203 201 203 198 198 202 190 194 200 194 193 180 204 191 162 104 89 56 33 38 53 57 60 69 66 68 60 39 40 51
178 182 184 194 184 210 220 221 220 241 261 257 248 240 208 203 217 214 222 215 211 185 172 174 130 149 139 111 80 73 60 40 37 58 60 65 67 63 64 56 24 37 58
176 173 184 184 195 217 230 227 230 226 258 279 307 298 184 225 281 262 213 150 58 59 22 88 60 66 58 71 65 60 49 23 36 63 60 65 65 56 53 54 39 45 65
177 177 180 172 190 216 232 238 245 239 239 273 292 230 229 201 237 303 335 345 5 18 19 3 344 355 23 50 48 45 43 11 58 64 57 57 50 53 53 55 56 59 67
169 169 172 182 204 224 219 229 241 251 249 276 275 303 303 274 316 319 94 89 316 351 340 354 355 9 20 41 49 37 40 41 83 56 47 24 356 43 64 63 61 61 67
180 166 168 177 205 219 224 231 244 242 243 248 253 272 269 282 303 334 80 38 315 327 333 325 353 352 10 29 23 52 50 68 35 332 353 302 302 63 69 65 61 59 61
197 194 183 195 187 204 230 246 251 246 245 270 284 301 276 213 248 323 5 20 335 317 317 333 336 332 347 349 355 267 276 63 291 299 318 296 288 42 72 67 60 59 56
190 191 183 182 192 185 202 252 254 243 253 266 273 304 318 309 313 321 339 343 336 330 323 332 347 332 312 301 286 267 254 281 359 50 32 341 311 289 64 63 62 63 59
188 187 183 189 194 189 210 247 287 260 242 288 297 315 328 322 344 339 354 338 333 332 320 328 335 336 322 319 322 323 358 12 12 10 350 330 311 297 291 355 67 70 66
194 185 172 182 189 190 166 253 271 257 254 256 283 290 319 334 341 343 354 0 342 285 293 300 326 317 331 347 350 353 3 4 356 353 345 329 316 306 285 88 63 70 63
226 223 178 160 170 215 253 321 292 275 270 296 288 283 323 325 329 339 351 345 2 330 306 320 353 345 343 350 349 358 360 355 347 345 341 342 337 332 322 59 52 58 54
258 261 151 138 95 293 266 296 353 23 276 306 319 312 333 350 343 3 359 341 330 343 331 340 341 337 346 335 334 348 344 338 344 341 338 349 349 352 358 17 30 38 33
274 285 323 137 349 295 295 306 311 309 296 302 336 342 334 316 325 351 350 349 346 338 332 323 327 338 350 342 345 334 337 346 348 344 351 354 356 357 359 3 4 5 4
287 283 173 247 140 113 354 311 306 301 290 286 289 298 300 304 315 325 324 328 332 331 332 335 336 346 351 338 338 342 346 354 355 349 350 348 354 360 4 6 2 358 355
291 282 299 296 289 299 304 305 304 312 315 309 306 311 317 325 333 344 335 332 335 337 343 344 345 346 351 351 354 350 343 356 351 347 354 352 357 2 2 1 359 357 359
287 287 288 291 291 291 290 291 296 303 305 310 308 316 321 327 325 323 333 330 332 332 334 337 343 341 341 342 343 347 352 353 360 346 353 351 353 0 1 360 359 0 2
278 285 287 290 291 293 295 294 294 296 299 313 310 317 318 325 325 325 329 330 332 331 332 337 339 339 340 342 343 346 348 353 354 342 348 349 346 350 360 359 359 1 2
285 282 279 285 288 295 295 297 294 296 301 301 305 312 313 316 327 330 341 328 333 333 334 335 333 333 337 338 344 346 345 349 353 342 347 348 343 348 356 356 356 357 359
286 284 281 281 278 295 296 293 294 292 297 298 303 310 315 318 321 328 334 331 328 330 336 346 349 348 345 343 345 343 342 343 346 341 340 340 340 341 345 351 353 352 353
284 284 284 282 284 290 293 299 296 287 297 302 301 307 318 323 326 334 333 332 338 345 356 360 360 357 354 351 346 342 335 338 336 336 338 339 340 341 342 343 347 347 349
298 291 291 289 283 285 283 286 286 279 297 305 297 302 315 322 327 330 332 345 346 341 343 343 341 344 346 346 346 347 344 339 336 335 337 339 334 338 338 346 348 348 346